| time (UTC) | temp F | wind direction | speed MPH | gust MPH | rain 1hr in | rain 24hr in | rain mn in | humidity % | barometer mb |
| 20260503192657 | 64 | 317 | 5.0 | 6.0 | 0.00 | 0.00 | 0.00 | 39 | 1017.1 |
| 20260503192153 | 64 | 292 | 6.0 | 7.0 | 0.00 | 0.00 | 0.00 | 40 | 1016.7 |
| 20260503191649 | 63 | 313 | 1.0 | 1.0 | 0.00 | 0.00 | 0.00 | 40 | 1017.1 |
| 20260503191147 | 63 | 77 | 3.0 | 3.0 | 0.00 | 0.00 | 0.00 | 42 | 1017.1 |
| 20260503190643 | 63 | 346 | 0.0 | 1.0 | 0.00 | 0.00 | 0.00 | 43 | 1017.1 |
| 20260503190140 | 62 | 81 | 2.0 | 2.0 | 0.00 | 0.00 | 0.00 | 43 | 1017.1 |
| 20260503185637 | 63 | 24 | 4.0 | 5.0 | 0.00 | 0.00 | 0.00 | 38 | 1017.1 |
| 20260503185132 | 64 | 356 | 3.0 | 6.0 | 0.00 | 0.00 | 0.00 | 38 | 1017.5 |
| 20260503184628 | 62 | 27 | 1.0 | 1.0 | 0.00 | 0.00 | 0.00 | 44 | 1017.5 |
| 20260503184124 | 60 | 316 | 3.0 | 5.0 | 0.00 | 0.00 | 0.00 | 39 | 1017.5 |
| 20260503183621 | 61 | 242 | 7.0 | 9.0 | 0.00 | 0.00 | 0.00 | 42 | 1017.5 |
| 20260503183118 | 60 | 278 | 2.0 | 2.0 | 0.00 | 0.00 | 0.00 | 41 | 1017.5 |
| 20260503182616 | 61 | 330 | 0.0 | 1.0 | 0.00 | 0.00 | 0.00 | 38 | 1017.5 |
| 20260503182114 | 60 | 6 | 2.0 | 2.0 | 0.00 | 0.00 | 0.00 | 44 | 1017.5 |
| 20260503181611 | 61 | 244 | 5.0 | 7.0 | 0.00 | 0.00 | 0.00 | 44 | 1017.5 |
| 20260503181108 | 59 | 252 | 3.0 | 5.0 | 0.00 | 0.00 | 0.00 | 42 | 1017.5 |
| 20260503180605 | 61 | 298 | 5.0 | 8.0 | 0.00 | 0.00 | 0.00 | 38 | 1017.8 |
| 20260503180103 | 61 | 273 | 2.0 | 3.0 | 0.00 | 0.00 | 0.00 | 43 | 1017.8 |
| 20260503175559 | 61 | 247 | 2.0 | 5.0 | 0.00 | 0.00 | 0.00 | 42 | 1017.8 |
| 20260503175056 | 61 | 49 | 3.0 | 6.0 | 0.00 | 0.00 | 0.00 | 42 | 1017.8 |
| 20260503174553 | 59 | 47 | 0.0 | 0.0 | 0.00 | 0.00 | 0.00 | 45 | 1017.8 |
| 20260503174050 | 59 | 48 | 4.0 | 5.0 | 0.00 | 0.00 | 0.00 | 42 | 1018.2 |
| 20260503173545 | 59 | 33 | 2.0 | 3.0 | 0.00 | 0.00 | 0.00 | 45 | 1018.2 |
| 20260503173041 | 60 | 357 | 5.0 | 7.0 | 0.00 | 0.00 | 0.00 | 42 | 1018.2 |
| 20260503172539 | 59 | 301 | 4.0 | 6.0 | 0.00 | 0.00 | 0.00 | 44 | 1018.2 |
| 20260503172036 | 58 | 10 | 0.0 | 1.0 | 0.00 | 0.00 | 0.00 | 41 | 1018.5 |
| 20260503171532 | 58 | 23 | 3.0 | 3.0 | 0.00 | 0.00 | 0.00 | 44 | 1018.5 |
| 20260503171030 | 59 | 40 | 2.0 | 3.0 | 0.00 | 0.00 | 0.00 | 45 | 1018.5 |
| 20260503170526 | 57 | 42 | 3.0 | 5.0 | 0.00 | 0.00 | 0.00 | 44 | 1018.5 |
| 20260503150918 | 52 | 300 | 2.0 | 3.0 | 0.00 | 0.00 | 0.00 | 57 | 1019.6 |
| 20260503150415 | 52 | 359 | 2.0 | 2.0 | 0.00 | 0.00 | 0.00 | 56 | 1019.6 |
| 20260503131308 | 48 | 342 | 4.0 | 6.0 | 0.00 | 0.00 | 0.00 | 71 | 1019.3 |
| 20260503130805 | 47 | 303 | 0.0 | 0.0 | 0.00 | 0.00 | 0.00 | 73 | 1019.3 |
| 20260503130303 | 49 | 301 | 0.0 | 1.0 | 0.00 | 0.00 | 0.00 | 71 | 1019.3 |
| 20260503110657 | 32 | 149 | 0.0 | 0.0 | 0.00 | 0.00 | 0.00 | 99 | 1018.5 |
| 20260503110154 | 32 | 149 | 0.0 | 0.0 | 0.00 | 0.00 | 0.00 | 99 | 1018.5 |
| 20260503100120 | 32 | 149 | 0.0 | 0.0 | 0.00 | 0.00 | 0.00 | 99 | 1017.5 |
| 20260503081510 | 34 | 135 | 2.0 | 2.0 | 0.00 | 0.00 | 0.00 | 99 | 1016.7 |
| 20260503081007 | 34 | 148 | 3.0 | 3.0 | 0.00 | 0.00 | 0.00 | 99 | 1016.4 |
| 20260503080503 | 34 | 144 | 0.0 | 0.0 | 0.00 | 0.00 | 0.00 | 99 | 1016.4 |
| 20260503072939 | 33 | 124 | 0.0 | 0.0 | 0.00 | 0.00 | 0.00 | 99 | 1016.0 |
| 20260503072437 | 33 | 124 | 0.0 | 0.0 | 0.00 | 0.00 | 0.00 | 99 | 1016.0 |
| 20260503071934 | 33 | 124 | 0.0 | 0.0 | 0.00 | 0.00 | 0.00 | 99 | 1016.0 |
| 20260503071431 | 34 | 124 | 0.0 | 0.0 | 0.00 | 0.00 | 0.00 | 99 | 1016.0 |
| 20260503070927 | 34 | 124 | 0.0 | 0.0 | 0.00 | 0.00 | 0.00 | 99 | 1016.0 |
| 20260503070424 | 33 | 123 | 0.0 | 0.0 | 0.00 | 0.00 | 0.00 | 99 | 1016.0 |
| 20260503054837 | 35 | 136 | 0.0 | 1.0 | 0.00 | 0.00 | 0.00 | 96 | 1016.0 |
| 20260503054333 | 36 | 137 | 2.0 | 2.0 | 0.00 | 0.00 | 0.00 | 96 | 1016.0 |
| 20260503053832 | 36 | 106 | 0.0 | 0.0 | 0.00 | 0.00 | 0.00 | 95 | 1016.0 |
| 20260503053330 | 37 | 106 | 0.0 | 0.0 | 0.00 | 0.00 | 0.00 | 95 | 1015.7 |
| 20260503052826 | 37 | 86 | 0.0 | 0.0 | 0.00 | 0.00 | 0.00 | 94 | 1016.0 |
| 20260503052323 | 37 | 85 | 1.0 | 1.0 | 0.00 | 0.00 | 0.00 | 94 | 1016.0 |
| 20260503051819 | 37 | 97 | 0.0 | 0.0 | 0.00 | 0.00 | 0.00 | 94 | 1016.0 |
| 20260503051315 | 37 | 156 | 2.0 | 2.0 | 0.00 | 0.00 | 0.00 | 95 | 1016.0 |
| 20260503050812 | 37 | 137 | 2.0 | 2.0 | 0.00 | 0.00 | 0.00 | 94 | 1015.7 |
| 20260503050308 | 37 | 96 | 0.0 | 1.0 | 0.00 | 0.00 | 0.00 | 93 | 1016.0 |
| 20260503045806 | 37 | 90 | 1.0 | 1.0 | 0.00 | 0.00 | 0.00 | 94 | 1016.0 |
| 20260503045305 | 38 | 41 | 2.0 | 2.0 | 0.00 | 0.00 | 0.00 | 92 | 1015.7 |
| 20260503044800 | 38 | 100 | 0.0 | 0.0 | 0.00 | 0.00 | 0.00 | 91 | 1015.7 |
| 20260503044257 | 38 | 99 | 0.0 | 0.0 | 0.00 | 0.00 | 0.00 | 91 | 1016.0 |
| 20260503043755 | 39 | 96 | 0.0 | 1.0 | 0.00 | 0.00 | 0.00 | 90 | 1015.7 |
| 20260503043251 | 39 | 88 | 1.0 | 1.0 | 0.00 | 0.00 | 0.00 | 90 | 1015.7 |
| 20260503042747 | 39 | 147 | 0.0 | 1.0 | 0.00 | 0.00 | 0.00 | 89 | 1015.7 |
| 20260503042244 | 38 | 157 | 1.0 | 2.0 | 0.00 | 0.00 | 0.00 | 90 | 1015.7 |
| 20260503041740 | 38 | 159 | 0.0 | 0.0 | 0.00 | 0.00 | 0.00 | 92 | 1015.7 |
| 20260503041238 | 37 | 159 | 1.0 | 2.0 | 0.00 | 0.00 | 0.00 | 93 | 1015.7 |
| 20260503040735 | 37 | 159 | 0.0 | 0.0 | 0.00 | 0.00 | 0.00 | 93 | 1015.7 |
| 20260503040233 | 38 | 159 | 1.0 | 1.0 | 0.00 | 0.00 | 0.00 | 92 | 1015.2 |
| 20260503035729 | 38 | 159 | 0.0 | 1.0 | 0.00 | 0.00 | 0.00 | 92 | 1015.2 |
| 20260503035227 | 38 | 159 | 2.0 | 2.0 | 0.00 | 0.00 | 0.00 | 93 | 1015.2 |
| 20260503034724 | 38 | 159 | 1.0 | 2.0 | 0.00 | 0.00 | 0.00 | 93 | 1015.2 |
| 20260503034221 | 39 | 159 | 3.0 | 3.0 | 0.00 | 0.00 | 0.00 | 91 | 1014.9 |
| 20260503033718 | 39 | 159 | 0.0 | 1.0 | 0.00 | 0.00 | 0.00 | 89 | 1014.9 |
| 20260503033216 | 39 | 158 | 1.0 | 1.0 | 0.00 | 0.00 | 0.00 | 89 | 1015.2 |
| 20260503032714 | 39 | 159 | 1.0 | 1.0 | 0.00 | 0.00 | 0.00 | 91 | 1014.9 |
| 20260503032212 | 39 | 159 | 1.0 | 1.0 | 0.00 | 0.00 | 0.00 | 89 | 1014.9 |
| 20260503031709 | 40 | 159 | 0.0 | 1.0 | 0.00 | 0.00 | 0.00 | 88 | 1014.9 |
| 20260503031208 | 40 | 158 | 0.0 | 0.0 | 0.00 | 0.00 | 0.00 | 87 | 1014.9 |
| 20260503030703 | 40 | 159 | 1.0 | 2.0 | 0.00 | 0.00 | 0.00 | 86 | 1014.9 |
| 20260503030200 | 40 | 159 | 1.0 | 1.0 | 0.00 | 0.00 | 0.00 | 88 | 1014.9 |
| 20260503025657 | 41 | 159 | 0.0 | 0.0 | 0.00 | 0.00 | 0.00 | 86 | 1014.9 |
| 20260503025154 | 41 | 159 | 1.0 | 2.0 | 0.00 | 0.00 | 0.00 | 84 | 1014.9 |
| 20260503024650 | 41 | 159 | 2.0 | 2.0 | 0.00 | 0.00 | 0.00 | 83 | 1014.9 |
| 20260503024148 | 42 | 159 | 1.0 | 1.0 | 0.00 | 0.00 | 0.00 | 82 | 1014.9 |
| 20260503023645 | 42 | 159 | 2.0 | 2.0 | 0.00 | 0.00 | 0.00 | 80 | 1014.9 |
| 20260503023141 | 43 | 159 | 1.0 | 2.0 | 0.00 | 0.00 | 0.00 | 81 | 1014.6 |
| 20260503022637 | 44 | 159 | 2.0 | 2.0 | 0.00 | 0.00 | 0.00 | 77 | 1014.6 |
| 20260503022132 | 45 | 152 | 2.0 | 2.0 | 0.00 | 0.00 | 0.00 | 73 | 1014.6 |
| 20260503021629 | 47 | 152 | 0.0 | 0.0 | 0.00 | 0.00 | 0.00 | 68 | 1014.6 |
| 20260503021126 | 47 | 131 | 0.0 | 0.0 | 0.00 | 0.00 | 0.00 | 63 | 1014.6 |
| 20260503020623 | 48 | 105 | 0.0 | 0.0 | 0.00 | 0.00 | 0.00 | 62 | 1014.6 |
| 20260503020120 | 48 | 45 | 1.0 | 2.0 | 0.00 | 0.00 | 0.00 | 60 | 1014.2 |
| 20260503015617 | 48 | 22 | 4.0 | 6.0 | 0.00 | 0.00 | 0.00 | 61 | 1014.6 |
| 20260503015114 | 48 | 38 | 3.0 | 5.0 | 0.00 | 0.00 | 0.00 | 59 | 1014.6 |
| 20260503014609 | 49 | 43 | 0.0 | 0.0 | 0.00 | 0.00 | 0.00 | 59 | 1014.2 |
| 20260503014108 | 48 | 86 | 2.0 | 2.0 | 0.00 | 0.00 | 0.00 | 60 | 1014.2 |
| 20260503013605 | 48 | 55 | 2.0 | 3.0 | 0.00 | 0.00 | 0.00 | 60 | 1014.2 |
| 20260503013103 | 49 | 67 | 1.0 | 2.0 | 0.00 | 0.00 | 0.00 | 58 | 1014.2 |
| 20260503012600 | 48 | 89 | 0.0 | 0.0 | 0.00 | 0.00 | 0.00 | 60 | 1014.2 |
| 20260503012056 | 49 | 77 | 1.0 | 1.0 | 0.00 | 0.00 | 0.00 | 59 | 1014.2 |
| 20260503011552 | 49 | 81 | 2.0 | 2.0 | 0.00 | 0.00 | 0.00 | 59 | 1013.8 |
| 20260503011050 | 49 | 102 | 0.0 | 1.0 | 0.00 | 0.00 | 0.00 | 58 | 1013.8 |
| 20260503010546 | 50 | 298 | 0.0 | 0.0 | 0.00 | 0.00 | 0.00 | 57 | 1013.8 |
| 20260503010044 | 50 | 357 | 0.0 | 0.0 | 0.00 | 0.00 | 0.00 | 56 | 1013.8 |
| 20260503005540 | 50 | 31 | 3.0 | 5.0 | 0.00 | 0.00 | 0.00 | 56 | 1013.5 |
| 20260503005038 | 51 | 331 | 2.0 | 5.0 | 0.00 | 0.00 | 0.00 | 54 | 1013.5 |
| 20260503004534 | 51 | 51 | 1.0 | 1.0 | 0.00 | 0.00 | 0.00 | 54 | 1013.5 |
| 20260503004032 | 51 | 252 | 2.0 | 2.0 | 0.00 | 0.00 | 0.00 | 53 | 1013.5 |
| 20260503003529 | 51 | 59 | 3.0 | 3.0 | 0.00 | 0.00 | 0.00 | 54 | 1013.5 |
| 20260503003026 | 51 | 86 | 1.0 | 2.0 | 0.00 | 0.00 | 0.00 | 54 | 1013.5 |
| 20260503002523 | 51 | 38 | 0.0 | 1.0 | 0.00 | 0.00 | 0.00 | 53 | 1013.1 |
| 20260503002020 | 51 | 87 | 1.0 | 1.0 | 0.00 | 0.00 | 0.00 | 55 | 1013.1 |
| 20260503001516 | 52 | 263 | 2.0 | 2.0 | 0.00 | 0.00 | 0.00 | 52 | 1013.1 |
| 20260503001013 | 52 | 221 | 2.0 | 2.0 | 0.00 | 0.00 | 0.00 | 52 | 1012.8 |
| 20260503000510 | 52 | 310 | 0.0 | 1.0 | 0.00 | 0.00 | 0.00 | 50 | 1013.1 |
| 20260503000007 | 52 | 178 | 0.0 | 0.0 | 0.00 | 0.00 | 0.00 | 51 | 1012.8 |
| 20260502235504 | 53 | 326 | 0.0 | 2.0 | 0.00 | 0.00 | 0.00 | 50 | 1012.8 |
| 20260502235002 | 53 | 284 | 7.0 | 8.0 | 0.00 | 0.00 | 0.00 | 49 | 1012.3 |
| 20260502234458 | 54 | 6 | 5.0 | 9.0 | 0.00 | 0.00 | 0.00 | 48 | 1012.8 |
| 20260502233955 | 54 | 34 | 3.0 | 5.0 | 0.00 | 0.00 | 0.00 | 48 | 1012.8 |
| 20260502233456 | 54 | 25 | 1.0 | 1.0 | 0.00 | 0.00 | 0.00 | 48 | 1012.8 |
| 20260502232953 | 55 | 314 | 2.0 | 2.0 | 0.00 | 0.00 | 0.00 | 47 | 1012.3 |
| 20260502232449 | 56 | 41 | 6.0 | 7.0 | 0.00 | 0.00 | 0.00 | 44 | 1012.8 |
| 20260502231946 | 57 | 340 | 5.0 | 7.0 | 0.00 | 0.00 | 0.00 | 45 | 1012.3 |
| 20260502231444 | 57 | 16 | 4.0 | 6.0 | 0.00 | 0.00 | 0.00 | 45 | 1012.3 |
| 20260502230942 | 58 | 329 | 5.0 | 8.0 | 0.00 | 0.00 | 0.00 | 44 | 1012.0 |
| 20260502230439 | 59 | 326 | 2.0 | 2.0 | 0.00 | 0.00 | 0.00 | 43 | 1012.0 |
| 20260502225937 | 58 | 20 | 2.0 | 2.0 | 0.00 | 0.00 | 0.00 | 44 | 1012.0 |
| 20260502225433 | 58 | 10 | 5.0 | 7.0 | 0.00 | 0.00 | 0.00 | 42 | 1012.3 |
| 20260502224930 | 57 | 3 | 3.0 | 3.0 | 0.00 | 0.00 | 0.00 | 45 | 1012.0 |
| 20260502224426 | 56 | 44 | 5.0 | 9.0 | 0.00 | 0.00 | 0.00 | 44 | 1012.3 |
| 20260502223923 | 55 | 133 | 2.0 | 3.0 | 0.00 | 0.00 | 0.00 | 46 | 1012.3 |
| 20260502223421 | 56 | 333 | 1.0 | 2.0 | 0.00 | 0.00 | 0.00 | 46 | 1012.0 |
| 20260502222919 | 57 | 32 | 2.0 | 5.0 | 0.00 | 0.00 | 0.00 | 46 | 1012.0 |
| 20260502222416 | 58 | 357 | 3.0 | 5.0 | 0.00 | 0.00 | 0.00 | 44 | 1012.0 |
| 20260502221911 | 59 | 326 | 5.0 | 7.0 | 0.00 | 0.00 | 0.00 | 43 | 1012.0 |
| 20260502221408 | 60 | 344 | 5.0 | 8.0 | 0.00 | 0.00 | 0.00 | 43 | 1012.0 |
| 20260502220905 | 60 | 354 | 3.0 | 5.0 | 0.00 | 0.00 | 0.00 | 43 | 1012.0 |
| 20260502220401 | 60 | 26 | 3.0 | 5.0 | 0.00 | 0.00 | 0.00 | 43 | 1012.0 |
| 20260502215857 | 60 | 325 | 2.0 | 5.0 | 0.00 | 0.00 | 0.00 | 42 | 1012.0 |
| 20260502215355 | 59 | 19 | 4.0 | 6.0 | 0.00 | 0.00 | 0.00 | 42 | 1011.7 |
| 20260502214852 | 60 | 30 | 1.0 | 2.0 | 0.00 | 0.00 | 0.00 | 44 | 1011.7 |
| 20260502214348 | 60 | 56 | 5.0 | 7.0 | 0.00 | 0.00 | 0.00 | 43 | 1011.7 |
| 20260502213846 | 61 | 11 | 3.0 | 3.0 | 0.00 | 0.00 | 0.00 | 40 | 1011.7 |
| 20260502213343 | 60 | 323 | 4.0 | 6.0 | 0.00 | 0.00 | 0.00 | 41 | 1011.7 |
| 20260502212841 | 59 | 307 | 4.0 | 7.0 | 0.00 | 0.00 | 0.00 | 41 | 1011.3 |
| 20260502212340 | 59 | 36 | 2.0 | 3.0 | 0.00 | 0.00 | 0.00 | 43 | 1011.3 |
| 20260502211837 | 59 | 30 | 2.0 | 5.0 | 0.00 | 0.00 | 0.00 | 45 | 1011.3 |
| 20260502211332 | 60 | 78 | 5.0 | 7.0 | 0.00 | 0.00 | 0.00 | 41 | 1011.3 |
| 20260502210830 | 60 | 19 | 0.0 | 1.0 | 0.00 | 0.00 | 0.00 | 45 | 1011.3 |
| 20260502210327 | 60 | 0 | 1.0 | 2.0 | 0.00 | 0.00 | 0.00 | 44 | 1011.3 |
| 20260502205824 | 61 | 342 | 3.0 | 5.0 | 0.00 | 0.00 | 0.00 | 43 | 1011.3 |
| 20260502205320 | 61 | 324 | 10.0 | 11.0 | 0.00 | 0.00 | 0.00 | 40 | 1011.0 |
| 20260502204817 | 60 | 308 | 5.0 | 7.0 | 0.00 | 0.00 | 0.00 | 42 | 1011.0 |
| 20260502204314 | 60 | 4 | 0.0 | 0.0 | 0.00 | 0.00 | 0.00 | 43 | 1011.0 |
| 20260502203812 | 61 | 352 | 7.0 | 8.0 | 0.00 | 0.00 | 0.00 | 40 | 1011.3 |
| 20260502203309 | 61 | 305 | 6.0 | 8.0 | 0.00 | 0.00 | 0.00 | 42 | 1011.0 |
| 20260502202809 | 61 | 59 | 5.0 | 7.0 | 0.00 | 0.00 | 0.00 | 42 | 1011.3 |
| 20260502202307 | 61 | 315 | 5.0 | 6.0 | 0.00 | 0.00 | 0.00 | 42 | 1011.0 |
| 20260502201805 | 59 | 293 | 7.0 | 8.0 | 0.00 | 0.00 | 0.00 | 43 | 1011.0 |
| 20260502201300 | 58 | 32 | 4.0 | 8.0 | 0.00 | 0.00 | 0.00 | 43 | 1011.0 |
| 20260502200757 | 58 | 287 | 3.0 | 7.0 | 0.00 | 0.00 | 0.00 | 45 | 1011.0 |
| 20260502200253 | 60 | 359 | 7.0 | 8.0 | 0.00 | 0.00 | 0.00 | 41 | 1011.3 |
| 20260502195752 | 62 | 358 | 3.0 | 5.0 | 0.00 | 0.00 | 0.00 | 39 | 1011.0 |
| 20260502195248 | 61 | 1 | 3.0 | 5.0 | 0.00 | 0.00 | 0.00 | 40 | 1011.0 |
| 20260502194744 | 62 | 317 | 3.0 | 10.0 | 0.00 | 0.00 | 0.00 | 44 | 1011.3 |
| 20260502194242 | 62 | 344 | 5.0 | 6.0 | 0.00 | 0.00 | 0.00 | 40 | 1011.3 |
| 20260502193737 | 63 | 37 | 2.0 | 2.0 | 0.00 | 0.00 | 0.00 | 43 | 1011.3 |
| 20260502193235 | 60 | 317 | 6.0 | 7.0 | 0.00 | 0.00 | 0.00 | 41 | 1011.3 |